Regional Weather Roundup
Issued by NWS

Current Version | Previous Version | Graphics & Text | Print | Product List | Glossary On
Versions: 1 2 3 4 5 6 7 8 9 10 11 12 13 14 15 16 17 18 19 20 21 22 23 24 25 26 27 28 29 30 31 32 33 34 35 36 37 38 39 40 41 42 43 44 45 46 47 48 49 50
000
ASHW40 PHFO 181543
RWRHI

WEATHER ROUNDUP FOR HAWAII
NATIONAL WEATHER SERVICE HONOLULU HI
500 AM HST FRI APR 18 2014

THIS IS AN AUTOMATED REPORT THAT HAS NOT BEEN QUALITY CONTROLLED.

NOTE..."FAIR" INDICATES FEW OR NO CLOUDS BELOW 12,000 FEET WITH NO
SIGNIFICANT WEATHER AND/OR OBSTRUCTIONS TO VISIBILITY.

* - THESE SITES REPORT LIMITED FIELDS

HIZ001>004-181600-
KAUAI-NIIHAU-

CITY           SKY/WX    TMP DP  RH WIND       PRES   REMARKS
LIHUE APT      CLOUDY    72  70  94 NE17      30.12S
PORT ALLEN*      N/A     73 N/A N/A E9          N/A
POIPU*           N/A     73 N/A N/A NE6G13      N/A
PRINCEVILLE*   NOT AVBL
KOKOLE POINT*  NOT AVBL
MOLOAA DAIRY*  NOT AVBL
WAIMEA HTS*      N/A     70  59  68 W2          N/A
PUU OPAE*        N/A     64  57  77 CALM        N/A
PUU LUA*       NOT AVBL
MAKAHA RIDGE*  NOT AVBL
$$

HIZ005>011-181600-
OAHU-

CITY           SKY/WX    TMP DP  RH WIND       PRES   REMARKS
HONOLULU       PTCLDY    73  65  75 CALM      30.08S
KALAELOA       CLEAR     70  65  84 CALM      30.09S
KANEOHE MCB    MOCLDY    70  66  88 NE8       30.09R
WHEELER FIELD  FAIR      67  65  93 N5        30.09S
BELLOWS*       NOT AVBL
KAHUKU*          N/A    N/A N/A N/A E6          N/A
WHEELER*       NOT AVBL
WAIANAE HARBOR NOT AVBL
DILLINGHAM*    NOT AVBL
KAHUKU TRN*      N/A     70  70 100 E5G13       N/A
KAWAILOA*      NOT AVBL
KII*             N/A     73  68  83 E12         N/A
MAKUA RANGE*     N/A     73  70  88 E9G17       N/A
OAHU FOREST NW   N/A     64  64 100 N12G24      N/A
SCHOFIELD BRK*   N/A     79  77  94 MISG        N/A
SCHOFIELD S*     N/A     64 N/A N/A CALM        N/A
WAIANAE VLY*     N/A     72  63  73 NE7G20      N/A
KUAOKALA*        N/A     70  64  83 NE18G25     N/A
HONOULIUULI*   NOT AVBL
MOKUOLOE IS*     N/A    N/A N/A N/A MISG        N/A
PALEHUA*         N/A     77  68  73 CALM        N/A
WAIAWA PHB*    NOT AVBL
$$

HIZ012>013-181600-
MOLOKAI-

CITY           SKY/WX    TMP DP  RH WIND       PRES   REMARKS
MOLOKAI AIRPT  PTCLDY    73  70  90 NE9G17    30.09R
KALAUPAPA      NOT AVBL
MAKAPULAPAI*     N/A     73  70  88 E16G25      N/A
MOLOKAI 1*       N/A     63  57  82 W2G9        N/A
PUU ALII*        N/A     55  54  96 E3G10       N/A
$$

HIZ016-181600-
KAHOOLAWE-

CITY           SKY/WX    TMP DP  RH WIND       PRES   REMARKS
KAHOOLAWE*       N/A     68 N/A N/A E8G16       N/A
HAKIOAWA*        N/A     71  65  80 MISG      30.19S
HONOKANAIA*      N/A     74  65  73 N7G13     30.08R
KANELOA*       NOT AVBL
KEALIALALO*      N/A    N/A N/A N/A E7G15     30.38R
LUA MAKIKA*    NOT AVBL
$$

HIZ014>015-181600-
LANAI-

CITY           SKY/WX    TMP DP  RH WIND       PRES   REMARKS
LANAI CITY     FAIR      68  66  93 NE8       30.12R
LANAI 1*         N/A     70  70 100 NE18G29     N/A
$$

HIZ017>028-181600-
MAUI-

CITY           SKY/WX    TMP DP  RH WIND       PRES   REMARKS
KAHULUI        HVY RAIN  73  69  87 E8        30.08R FOG
KAPALUA-W MAUI NOT AVBL
HANA AIRPORT   NOT AVBL
HANA*            N/A     75 N/A N/A E10G17      N/A
HALEAKALA SUMM   N/A     39  39 100 E26G41      N/A  WCI  28
MAALAEA BAY*   NOT AVBL
HALEAKALA*     NOT AVBL
KAUPO GAP*       N/A    N/A N/A N/A VRB10G24    N/A
KULA 1*          N/A     50  43  76 E3G12       N/A
$$

HIZ023>026-181600-
BIG ISLAND OF HAWAII COAST AND LOWER SLOPES-

CITY           SKY/WX    TMP DP  RH WIND       PRES   REMARKS
KAILUA KONA    CLOUDY    76  61  59 CALM      30.03R
HILO           CLOUDY    69  68  96 VRB3      30.08R
HONOKAA*       NOT AVBL
KAWAIHAE MWT*    N/A     77 N/A N/A N6G12       N/A
KAWAIHAE*        N/A     79 N/A N/A NW3         N/A
SOUTH POINT*     N/A     70 N/A N/A NE13        N/A
UPOLU AIRPORT*   N/A    N/A N/A N/A E14G20      N/A
KAMUELA*       MOSUNNY   61  59  94 NE12      30.16R
HAKALAU*         N/A     50  50  99 S3          N/A
KALOKO-HONOKO*   N/A     72  61  68 E2        30.03R
PALI 2*          N/A     63  57  82 N13G18      N/A
KEALAKOMO*       N/A     73  64  73 NE9G17      N/A
KAUPULEHU*       N/A     66  57  72 SE6         N/A
KAPAPALA*        N/A     60  56  87 N1          N/A
LOWER KAHUKU*  NOT AVBL
PUHE CS*       NOT AVBL
PUHO CS*         N/A     71  56  58 E2G8        N/A
PTA KEAMUKU*     N/A     55  50  82 SE9         N/A
WAIKOLOA*        N/A     70  59  68 S9          N/A
$$

HIZ027>028-181600-
BIG ISLAND OF HAWAII INTERIOR AND SUMMMITS-

CITY           SKY/WX    TMP DP  RH WIND       PRES   REMARKS
BRADSHAW FIELD PTCLDY    45  37  73 E3        30.35S
MK VISITOR CEN NOT AVBL
MAUNA KEA*       N/A     36 -29   5 E35         N/A  WCI  22
MAUNA LOA*       N/A     45 -31   3 MISG        N/A
MAUNA LOA 1*   NOT AVBL
PTA KIPUKA*      N/A     50  46  87 SE5G12      N/A
PTA RANGE 17*    N/A     72  68  88 E12G25      N/A
PTA WEST*        N/A     54  48  82 SE6G14      N/A
NENE CABIN*    NOT AVBL
AHUMOA*          N/A     46  41  81 E6          N/A
PTA PORTABLE*  NOT AVBL
PUU MALI*      NOT AVBL
$$

HIC003-181600-
NORTHWEST ISLANDS-

CITY           SKY/WX    TMP DP  RH WIND       PRES   REMARKS
MIDWAY ISLAND  CLOUDY    66  66 100 E12       30.22R
MIDWAY NOS*    NOT AVBL
FRENCH FRIGATE NOT AVBL
$$

PHZ110>124-180-181600-
BUOY REPORTS

STATION/POSITION TIME  TEMP    WIND        PRES    WAVE   SWELL
                       AIR SEA DIR/SP/G            HT/PER HT/DIR
                 (UTC) (F)     (DEG/KT/KT) (MB)    (FT/S) (FT/D)
BUOY 51001       NOT AVBL
BUOY 51101       1500   72 74   50/ 14/ 17 1020.5F   6/11   5/320
BUOY 51100       1500   73 73   70/ 16/ 17 1020.4R
BUOY 51003       1500   77 78   60/ 14/ 16 1017.1R   7/12   5
BUOY 51004       1500   77 77   70/ 16/ 19 1013.9R   9/ 8   7
BARBERS PT BUOY  NOT AVBL
WAIMEA BAY BUOY  1500      75                N/A     5/12   3/320
KAILUA BAY BUOY  1500      75                N/A     6/ 8   2
LANAI BUOY       1500      78                N/A     2/13   2/250
BARBERS PT 2     1500      76                N/A     4/13   3/310
PAUWELA MAUI     NOT AVBL
HILO             1500      78                N/A     7/ 8   3/320
KANEOHE BAY BUOY 1500      75                N/A     5/ 9   2/340
HANALEI KAUAI    1500      77                N/A     6/12   3/320
KAHULUI HARBOR   1500   74 76   60/ 10/ 15 1018.3R
HONOLULU HARBOR  1500   72      10/  1/  4 1018.6R
KILO NALU        NOT AVBL
HILO HARBOR      1500   70 76  170/  3/  9 1017.9R
MOKUOLOE         1500   74 76   60/  7/  9 1018.9F
NAWILIWILI       1500      77                N/A
WHOTS BUOY       NOT AVBL
BUOY 51028       NOT AVBL
$$

......................KEY........................................
  SKY/WX - SKY CONDITIONS/PRESENT WEATHER
  TMP    - TEMPERATURE IN FAHRENHEIT
  DWPT   - DEWPOINT IN FAHRENHEIT
  RH     - RELATIVE HUMIDITY IN PERCENT
  WIND   - DIRECTION AND SPEED /MPH FOR ISLANDS...KTS FOR BUOYS/
  PRES   - MEAN SEA LEVEL PRESSURE IN INCHES OF HG
  VSB    - VISIBILITY IN MILES
  HX     - HEAT INDEX
  WCI    - WIND CHILL INDEX
  VRB    - VARIABLE WIND DIRECTION
  N/A    - NOT AVAILABLE



USA.gov is the U.S. government's official web portal to all federal, state and local government web resources and services.